Location: Barrialito
(10.1025°N, 66.8154°W)
Time: 19:56:58
(UTC+00:00)

USA 215 - Visible Passes

Search period start: 05 December 2024 00:00
Search period end: 15 December 2024 00:00
Orbit: 1099 x 1108 km, 123.0° (Epoch: 27 October)

Date Brightness Start Highest point End Pass type
(mag) Time Alt. Az. Time Alt. Az. Time Alt. Az.
05 Dec 5.9 00:41:11 10° SSW 00:44:22 14° SW 00:47:34 10° W visible
05 Dec 4.5 23:55:44 10° SSE 00:01:44 39° SW 00:07:45 10° WNW visible
06 Dec 3.2 23:12:30 10° SE 23:19:04 83° NE 23:25:38 10° NW visible
07 Dec 5.8 00:58:46 10° SSW 01:01:54 14° SW 01:05:03 10° W visible
07 Dec 3.9 22:30:46 10° ESE 22:36:31 33° NE 22:42:16 10° NNW visible
08 Dec 4.5 00:13:16 10° SSE 00:19:15 39° SW 00:25:16 10° WNW visible
08 Dec 3.1 23:30:02 10° SE 23:36:36 84° NE 23:43:09 10° NW visible
09 Dec 5.8 01:16:21 10° SSW 01:19:26 14° SW 01:22:31 10° W visible
09 Dec 3.8 22:48:16 10° ESE 22:54:03 34° NE 22:59:48 10° NNW visible
10 Dec 4.4 00:30:48 10° SSE 00:36:47 38° SW 00:42:46 10° WNW visible
10 Dec 3.1 23:47:32 10° SE 23:54:06 85° NE 00:00:41 10° NW visible
11 Dec 5.7 01:33:56 10° SSW 01:36:57 14° SW 01:39:58 10° W visible
11 Dec 3.8 23:05:46 10° ESE 23:11:33 34° NE 23:17:19 10° NNW visible
12 Dec 4.4 00:48:20 10° SSE 00:54:18 38° SW 01:00:17 10° WNW visible
12 Dec 4.8 22:26:23 10° ENE 22:29:14 13° NE 22:32:05 10° NNE visible
13 Dec 3.1 00:08:37 36° SE 00:11:38 85° NE 00:18:12 10° NW visible
13 Dec 5.8 01:56:15 12° WSW 01:56:15 12° WSW 01:57:26 10° W visible
13 Dec 3.8 23:26:48 27° E 23:29:04 34° NE 23:34:52 10° NNW visible
14 Dec 4.8 01:14:19 28° W 01:14:19 28° W 01:17:47 10° WNW visible
14 Dec 4.8 22:44:00 10° ENE 22:46:46 13° NE 22:49:40 10° NNE visible
